#ZEITBEREICH: 20.05.2023 bis 20.05.2024
Datum;Zeit;HUE2 NO AM1H [�g/m�];HUE2 NO2 AM1H [�g/m�];HUE2 O3 AM1H [�g/m�];HUE2 PM10F GM24H [�g/m�]
20.05.2023;01:00;<7;<10;71;11
20.05.2023;02:00;<7;<10;62;11
20.05.2023;03:00;<7;<10;55;11
20.05.2023;04:00;<7;12;49;11
20.05.2023;05:00;<7;15;45;11
20.05.2023;06:00;<7;17;;11
20.05.2023;07:00;<7;19;40;10
20.05.2023;08:00;<7;20;40;10
20.05.2023;09:00;<7;<10;61;10
20.05.2023;10:00;<7;<10;70;10
20.05.2023;11:00;<7;<10;73;10
20.05.2023;12:00;<7;<10;76;10
20.05.2023;13:00;<7;<10;74;10
20.05.2023;14:00;<7;<10;72;10
20.05.2023;15:00;<7;<10;76;10
20.05.2023;16:00;<7;<10;77;10
20.05.2023;17:00;;;78;10
20.05.2023;18:00;<7;<10;80;10
20.05.2023;19:00;<7;<10;78;10
20.05.2023;20:00;<7;<10;75;10
20.05.2023;21:00;<7;<10;69;10
20.05.2023;22:00;<7;13;57;10
20.05.2023;23:00;<7;17;46;11
20.05.2023;24:00;<7;17;43;11
21.05.2023;01:00;<7;15;42;11
21.05.2023;02:00;<7;15;38;12
21.05.2023;03:00;<7;14;37;12
21.05.2023;04:00;<7;12;39;12
21.05.2023;05:00;<7;11;41;13
21.05.2023;06:00;<7;13;37;13
21.05.2023;07:00;<7;14;;13
21.05.2023;08:00;<7;13;35;13
21.05.2023;09:00;<7;12;42;14
21.05.2023;10:00;<7;11;46;14
21.05.2023;11:00;<7;<10;57;14
21.05.2023;12:00;<7;10;67;15
21.05.2023;13:00;<7;<10;80;16
21.05.2023;14:00;<7;<10;93;16
21.05.2023;15:00;<7;<10;98;16
21.05.2023;16:00;<7;<10;101;17
21.05.2023;17:00;<7;<10;100;17
21.05.2023;18:00;;;99;18
21.05.2023;19:00;<7;11;87;18
21.05.2023;20:00;<7;11;87;18
21.05.2023;21:00;<7;14;84;19
21.05.2023;22:00;<7;15;78;19
21.05.2023;23:00;<7;13;77;19
21.05.2023;24:00;<7;16;64;19
22.05.2023;01:00;<7;18;50;20
22.05.2023;02:00;<7;20;41;20
22.05.2023;03:00;<7;17;41;21
22.05.2023;04:00;<7;16;38;21
22.05.2023;05:00;<7;13;39;22
22.05.2023;06:00;<7;13;42;22
22.05.2023;07:00;<7;16;39;23
22.05.2023;08:00;<7;13;45;24
22.05.2023;09:00;<7;14;49;25
22.05.2023;10:00;<7;18;49;26
22.05.2023;11:00;<7;15;56;26
22.05.2023;12:00;<7;20;50;27
22.05.2023;13:00;<7;19;56;28
22.05.2023;14:00;<7;20;66;29
22.05.2023;15:00;<7;17;74;30
22.05.2023;16:00;<7;14;82;31
22.05.2023;17:00;<7;13;91;32
22.05.2023;18:00;<7;11;101;33
22.05.2023;19:00;;;103;35
22.05.2023;20:00;<7;12;103;36
22.05.2023;21:00;<7;<10;103;36
22.05.2023;22:00;<7;11;91;36
22.05.2023;23:00;<7;<10;;36
22.05.2023;24:00;<7;<10;92;36
23.05.2023;01:00;<7;<10;84;35
23.05.2023;02:00;<7;<10;93;34
23.05.2023;03:00;<7;<10;94;34
23.05.2023;04:00;<7;<10;101;33
23.05.2023;05:00;<7;<10;94;32
23.05.2023;06:00;<7;<10;91;31
23.05.2023;07:00;<7;12;85;30
23.05.2023;08:00;<7;13;84;30
23.05.2023;09:00;<7;<10;88;29
23.05.2023;10:00;<7;11;88;28
23.05.2023;11:00;;;;27
23.05.2023;12:00;19;<10;71;25
23.05.2023;13:00;<7;<10;81;24
23.05.2023;14:00;<7;<10;82;23
23.05.2023;15:00;<7;<10;80;22
23.05.2023;16:00;<7;<10;86;20
23.05.2023;17:00;<7;<10;87;19
23.05.2023;18:00;<7;<10;87;17
23.05.2023;19:00;<7;<10;85;16
23.05.2023;20:00;<7;<10;84;14
23.05.2023;21:00;<7;<10;77;14
23.05.2023;22:00;<7;<10;72;14
23.05.2023;23:00;<7;<10;67;13
23.05.2023;24:00;<7;10;60;13
24.05.2023;01:00;<7;11;54;13
24.05.2023;02:00;<7;<10;53;13
24.05.2023;03:00;<7;<10;49;13
24.05.2023;04:00;<7;<10;46;13
24.05.2023;05:00;<7;<10;39;13
24.05.2023;06:00;<7;12;42;13
24.05.2023;07:00;8;19;40;13
24.05.2023;08:00;<7;12;59;13
24.05.2023;09:00;<7;11;62;13
24.05.2023;10:00;<7;10;65;13
24.05.2023;11:00;;;;13
24.05.2023;12:00;<7;16;61;13
24.05.2023;13:00;<7;10;71;13
24.05.2023;14:00;<7;<10;72;13
24.05.2023;15:00;<7;13;74;
24.05.2023;16:00;<7;10;77;
24.05.2023;17:00;<7;<10;79;
24.05.2023;18:00;<7;13;76;
24.05.2023;19:00;<7;13;73;
24.05.2023;20:00;<7;13;70;
24.05.2023;21:00;<7;12;70;
24.05.2023;22:00;<7;13;65;
24.05.2023;23:00;<7;17;46;
24.05.2023;24:00;<7;18;39;
25.05.2023;01:00;<7;14;29;
25.05.2023;02:00;<7;14;22;
25.05.2023;03:00;<7;16;25;
25.05.2023;04:00;<7;19;14;
25.05.2023;05:00;<7;21;13;
25.05.2023;06:00;<7;29;14;
25.05.2023;07:00;8;31;23;
25.05.2023;08:00;11;29;32;
25.05.2023;09:00;7;23;43;
25.05.2023;10:00;7;22;56;
25.05.2023;11:00;24;12;70;
25.05.2023;12:00;;;76;
25.05.2023;13:00;<7;12;72;18
25.05.2023;14:00;<7;<10;77;18
25.05.2023;15:00;<7;10;82;18
25.05.2023;16:00;<7;<10;87;18
25.05.2023;17:00;<7;<10;85;18
25.05.2023;18:00;<7;<10;84;18
25.05.2023;19:00;<7;<10;87;18
25.05.2023;20:00;<7;<10;86;17
25.05.2023;21:00;<7;10;82;17
25.05.2023;22:00;<7;13;74;17
25.05.2023;23:00;<7;18;;17
25.05.2023;24:00;<7;16;36;17
26.05.2023;01:00;<7;19;39;17
26.05.2023;02:00;<7;22;32;17
26.05.2023;03:00;<7;10;55;17
26.05.2023;04:00;<7;<10;58;17
26.05.2023;05:00;<7;11;53;18
26.05.2023;06:00;<7;13;51;18
26.05.2023;07:00;<7;17;50;18
26.05.2023;08:00;<7;15;51;18
26.05.2023;09:00;<7;13;56;18
26.05.2023;10:00;<7;12;57;18
26.05.2023;11:00;<7;11;61;18
26.05.2023;12:00;<7;11;66;19
26.05.2023;13:00;;;77;19
26.05.2023;14:00;<7;<10;85;19
26.05.2023;15:00;<7;<10;92;19
26.05.2023;16:00;<7;<10;97;19
26.05.2023;17:00;<7;<10;99;19
26.05.2023;18:00;<7;<10;101;19
26.05.2023;19:00;<7;<10;99;19
26.05.2023;20:00;<7;<10;97;19
26.05.2023;21:00;<7;<10;91;20
26.05.2023;22:00;<7;<10;87;20
26.05.2023;23:00;<7;<10;83;20
26.05.2023;24:00;<7;<10;;20
27.05.2023;01:00;<7;<10;74;20
27.05.2023;02:00;<7;<10;63;20
27.05.2023;03:00;<7;11;51;20
27.05.2023;04:00;<7;12;45;20
27.05.2023;05:00;<7;12;42;20
27.05.2023;06:00;<7;17;37;20
27.05.2023;07:00;<7;19;38;19
27.05.2023;08:00;<7;16;58;19
27.05.2023;09:00;<7;11;68;18
27.05.2023;10:00;<7;13;68;18
27.05.2023;11:00;<7;12;74;18
27.05.2023;12:00;<7;<10;94;17
27.05.2023;13:00;<7;<10;109;17
27.05.2023;14:00;;;115;16
27.05.2023;15:00;<7;<10;120;16
27.05.2023;16:00;<7;<10;121;15
27.05.2023;17:00;<7;<10;123;15
27.05.2023;18:00;<7;<10;122;14
27.05.2023;19:00;<7;<10;114;14
27.05.2023;20:00;<7;10;98;14
27.05.2023;21:00;<7;12;87;14
27.05.2023;22:00;<7;14;75;14
27.05.2023;23:00;<7;18;60;14
27.05.2023;24:00;<7;19;52;14
28.05.2023;01:00;<7;21;;14
28.05.2023;02:00;<7;20;28;14
28.05.2023;03:00;<7;17;21;14
28.05.2023;04:00;<7;16;20;14
28.05.2023;05:00;<7;17;31;14
28.05.2023;06:00;<7;21;23;14
28.05.2023;07:00;<7;23;26;14
28.05.2023;08:00;8;31;46;14
28.05.2023;09:00;<7;23;57;14
28.05.2023;10:00;<7;13;74;14
28.05.2023;11:00;<7;<10;93;14
28.05.2023;12:00;<7;<10;105;14
28.05.2023;13:00;<7;<10;112;13
28.05.2023;14:00;<7;<10;116;13
28.05.2023;15:00;;;118;14
28.05.2023;16:00;<7;<10;118;14
28.05.2023;17:00;<7;<10;117;14
28.05.2023;18:00;<7;<10;112;14
28.05.2023;19:00;<7;<10;110;14
28.05.2023;20:00;<7;<10;105;13
28.05.2023;21:00;<7;<10;103;13
28.05.2023;22:00;<7;<10;97;13
28.05.2023;23:00;<7;11;91;13
28.05.2023;24:00;<7;<10;87;13
29.05.2023;01:00;<7;<10;81;13
29.05.2023;02:00;<7;<10;;13
29.05.2023;03:00;<7;<10;61;13
29.05.2023;04:00;<7;<10;60;13
29.05.2023;05:00;<7;<10;57;12
29.05.2023;06:00;<7;<10;57;12
29.05.2023;07:00;<7;<10;59;12
29.05.2023;08:00;<7;<10;62;12
29.05.2023;09:00;<7;<10;65;12
29.05.2023;10:00;<7;<10;66;12
29.05.2023;11:00;<7;<10;70;12
29.05.2023;12:00;<7;<10;73;12
29.05.2023;13:00;<7;<10;82;12
29.05.2023;14:00;<7;<10;90;12
29.05.2023;15:00;<7;<10;95;12
29.05.2023;16:00;;;97;12
29.05.2023;17:00;<7;<10;96;13
29.05.2023;18:00;<7;<10;96;13
29.05.2023;19:00;<7;<10;97;13
29.05.2023;20:00;<7;<10;98;13
29.05.2023;21:00;<7;<10;96;13
29.05.2023;22:00;<7;<10;95;13
29.05.2023;23:00;<7;10;85;13
29.05.2023;24:00;<7;<10;87;13
30.05.2023;01:00;<7;<10;87;13
30.05.2023;02:00;<7;<10;82;13
30.05.2023;03:00;<7;<10;;13
30.05.2023;04:00;<7;<10;71;13
30.05.2023;05:00;<7;<10;66;13
30.05.2023;06:00;<7;12;59;13
30.05.2023;07:00;<7;15;54;13
30.05.2023;08:00;<7;12;58;13
30.05.2023;09:00;<7;13;62;14
30.05.2023;10:00;<7;12;63;14
30.05.2023;11:00;<7;10;67;17
30.05.2023;12:00;<7;<10;74;22
30.05.2023;13:00;<7;<10;82;23
30.05.2023;14:00;<7;<10;94;24
30.05.2023;15:00;<7;<10;104;24
30.05.2023;16:00;<7;<10;104;24
30.05.2023;17:00;;;99;24
30.05.2023;18:00;<7;<10;97;24
30.05.2023;19:00;<7;<10;96;24
30.05.2023;20:00;<7;<10;93;24
30.05.2023;21:00;<7;<10;89;25
30.05.2023;22:00;<7;<10;74;24
30.05.2023;23:00;<7;<10;61;24
30.05.2023;24:00;<7;<10;56;24
31.05.2023;01:00;<7;<10;48;24
31.05.2023;02:00;<7;15;36;24
31.05.2023;03:00;<7;14;33;25
31.05.2023;04:00;<7;17;;25
31.05.2023;05:00;<7;20;23;25
31.05.2023;06:00;<7;25;19;25
31.05.2023;07:00;7;26;28;25
31.05.2023;08:00;15;30;36;25
31.05.2023;09:00;<7;20;56;25
31.05.2023;10:00;<7;17;72;24
31.05.2023;11:00;<7;<10;99;21
31.05.2023;12:00;<7;<10;108;16
31.05.2023;13:00;<7;<10;110;15
31.05.2023;14:00;<7;<10;110;15
31.05.2023;15:00;<7;<10;113;14
31.05.2023;16:00;<7;<10;116;14
31.05.2023;17:00;<7;<10;115;15
31.05.2023;18:00;;;115;15
31.05.2023;19:00;<7;<10;111;15
31.05.2023;20:00;<7;<10;110;15
31.05.2023;21:00;<7;<10;107;15
31.05.2023;22:00;<7;<10;99;15
31.05.2023;23:00;<7;10;87;15
31.05.2023;24:00;<7;12;77;15
01.06.2023;01:00;<7;13;71;15
01.06.2023;02:00;<7;16;62;15
01.06.2023;03:00;<7;18;53;15
01.06.2023;04:00;<7;18;47;15
01.06.2023;05:00;<7;19;;15
01.06.2023;06:00;<7;24;33;15
01.06.2023;07:00;<7;22;35;15
01.06.2023;08:00;<7;17;39;15
01.06.2023;09:00;<7;17;41;15
01.06.2023;10:00;<7;18;45;16
01.06.2023;11:00;<7;16;49;17
01.06.2023;12:00;<7;17;61;18
01.06.2023;13:00;<7;18;72;19
01.06.2023;14:00;<7;16;85;19
01.06.2023;15:00;<7;20;87;20
01.06.2023;16:00;<7;17;98;20
01.06.2023;17:00;<7;16;98;21
01.06.2023;18:00;<7;18;91;21
01.06.2023;19:00;;;88;21
01.06.2023;20:00;<7;12;95;21
01.06.2023;21:00;<7;20;67;21
01.06.2023;22:00;<7;12;64;21
01.06.2023;23:00;<7;<10;66;21
01.06.2023;24:00;<7;11;58;22
02.06.2023;01:00;<7;11;59;22
02.06.2023;02:00;<7;<10;68;22
02.06.2023;03:00;<7;<10;71;22
02.06.2023;04:00;<7;<10;70;22
02.06.2023;05:00;<7;<10;71;22
02.06.2023;06:00;<7;<10;;22
02.06.2023;07:00;<7;<10;74;22
02.06.2023;08:00;<7;<10;77;22
02.06.2023;09:00;<7;<10;76;22
02.06.2023;10:00;<7;<10;76;22
02.06.2023;11:00;<7;10;77;24
02.06.2023;12:00;<7;<10;79;24
02.06.2023;13:00;<7;<10;83;23
02.06.2023;14:00;<7;<10;92;23
02.06.2023;15:00;<7;<10;103;23
02.06.2023;16:00;<7;<10;106;22
02.06.2023;17:00;<7;<10;102;22
02.06.2023;18:00;<7;<10;97;22
02.06.2023;19:00;<7;<10;94;22
02.06.2023;20:00;;;93;22
02.06.2023;21:00;<7;<10;89;22
02.06.2023;22:00;<7;<10;82;22
02.06.2023;23:00;<7;13;71;22
02.06.2023;24:00;<7;12;61;22
03.06.2023;01:00;<7;12;51;22
03.06.2023;02:00;<7;11;43;22
03.06.2023;03:00;<7;10;47;22
03.06.2023;04:00;<7;12;37;22
03.06.2023;05:00;<7;12;39;22
03.06.2023;06:00;<7;18;46;21
03.06.2023;07:00;<7;14;;21
03.06.2023;08:00;<7;<10;65;20
03.06.2023;09:00;<7;<10;68;20
03.06.2023;10:00;<7;<10;78;19
03.06.2023;11:00;<7;<10;88;16
03.06.2023;12:00;<7;<10;95;16
03.06.2023;13:00;<7;<10;97;15
03.06.2023;14:00;<7;<10;102;15
03.06.2023;15:00;<7;<10;105;15
03.06.2023;16:00;<7;<10;104;15
03.06.2023;17:00;<7;<10;100;16
03.06.2023;18:00;<7;<10;97;16
03.06.2023;19:00;<7;<10;95;16
03.06.2023;20:00;<7;<10;92;15
03.06.2023;21:00;;;90;15
03.06.2023;22:00;<7;<10;83;15
03.06.2023;23:00;<7;<10;79;14
03.06.2023;24:00;<7;<10;77;14
04.06.2023;01:00;<7;<10;65;14
04.06.2023;02:00;<7;<10;58;14
04.06.2023;03:00;<7;10;49;14
04.06.2023;04:00;<7;12;45;13
04.06.2023;05:00;<7;14;41;13
04.06.2023;06:00;<7;16;41;13
04.06.2023;07:00;<7;16;47;13
04.06.2023;08:00;<7;16;56;13
04.06.2023;09:00;<7;14;67;13
04.06.2023;10:00;<7;<10;84;13
04.06.2023;11:00;<7;<10;99;13
04.06.2023;12:00;<7;<10;104;12
04.06.2023;13:00;<7;<10;107;12
04.06.2023;14:00;<7;<10;110;12
04.06.2023;15:00;<7;<10;113;12
04.06.2023;16:00;<7;<10;113;11
04.06.2023;17:00;<7;<10;117;10
04.06.2023;18:00;<7;<10;114;<10
04.06.2023;19:00;<7;<10;111;<10
04.06.2023;20:00;<7;<10;110;<10
04.06.2023;21:00;<7;<10;107;<10
04.06.2023;22:00;;;98;<10
04.06.2023;23:00;<7;11;;<10
04.06.2023;24:00;<7;13;80;10
05.06.2023;01:00;<7;16;64;10
05.06.2023;02:00;<7;16;63;10
05.06.2023;03:00;<7;15;60;11
05.06.2023;04:00;<7;18;54;11
05.06.2023;05:00;<7;19;49;11
05.06.2023;06:00;<7;22;41;11
05.06.2023;07:00;<7;28;34;11
05.06.2023;08:00;9;27;39;12
05.06.2023;09:00;<7;24;50;12
05.06.2023;10:00;<7;21;61;12
05.06.2023;11:00;<7;17;75;13
05.06.2023;12:00;<7;12;98;13
05.06.2023;13:00;<7;<10;120;13
05.06.2023;14:00;<7;<10;130;14
05.06.2023;15:00;<7;<10;136;14
05.06.2023;16:00;<7;<10;132;14
05.06.2023;17:00;<7;<10;127;14
05.06.2023;18:00;<7;<10;123;14
05.06.2023;19:00;<7;<10;121;14
05.06.2023;20:00;<7;<10;122;14
05.06.2023;21:00;<7;<10;118;14
05.06.2023;22:00;<7;15;105;14
05.06.2023;23:00;;;91;15
05.06.2023;24:00;<7;16;;15
06.06.2023;01:00;<7;17;73;15
06.06.2023;02:00;<7;16;69;15
06.06.2023;03:00;<7;15;61;15
06.06.2023;04:00;<7;15;54;16
06.06.2023;05:00;<7;16;48;16
06.06.2023;06:00;<7;23;38;16
06.06.2023;07:00;<7;27;35;21
06.06.2023;08:00;<7;24;41;28
06.06.2023;09:00;<7;20;55;28
06.06.2023;10:00;<7;17;65;28
06.06.2023;11:00;<7;20;66;28
06.06.2023;12:00;<7;21;82;29
06.06.2023;13:00;<7;17;101;29
06.06.2023;14:00;<7;11;121;29
06.06.2023;15:00;<7;<10;126;30
06.06.2023;16:00;<7;<10;136;30
06.06.2023;17:00;<7;<10;125;30
06.06.2023;18:00;<7;<10;115;30
06.06.2023;19:00;<7;<10;117;30
06.06.2023;20:00;<7;<10;117;30
06.06.2023;21:00;<7;11;105;31
06.06.2023;22:00;<7;12;98;31
06.06.2023;23:00;<7;12;88;31
06.06.2023;24:00;;;73;30
07.06.2023;01:00;<7;17;;30
07.06.2023;02:00;<7;17;57;30
07.06.2023;03:00;<7;17;63;31
07.06.2023;04:00;<7;19;56;31
07.06.2023;05:00;<7;25;44;31
07.06.2023;06:00;<7;32;36;32
07.06.2023;07:00;<7;35;35;27
07.06.2023;08:00;<7;38;30;20
07.06.2023;09:00;<7;31;37;20
07.06.2023;10:00;<7;29;45;22
07.06.2023;11:00;<7;21;62;27
07.06.2023;12:00;<7;20;69;31
07.06.2023;13:00;<7;29;46;33
07.06.2023;14:00;<7;22;58;36
07.06.2023;15:00;<7;19;59;36
07.06.2023;16:00;<7;13;72;37
07.06.2023;17:00;<7;15;72;39
07.06.2023;18:00;<7;16;70;41
07.06.2023;19:00;<7;15;78;41
07.06.2023;20:00;<7;17;77;42
07.06.2023;21:00;<7;18;68;42
07.06.2023;22:00;<7;28;54;43
07.06.2023;23:00;<7;21;53;43
07.06.2023;24:00;<7;17;61;44
08.06.2023;01:00;;;56;44
08.06.2023;02:00;<7;18;;45
08.06.2023;03:00;<7;17;47;45
08.06.2023;04:00;<7;18;43;45
08.06.2023;05:00;<7;18;41;45
08.06.2023;06:00;<7;16;43;45
08.06.2023;07:00;<7;16;47;45
08.06.2023;08:00;<7;13;61;45
08.06.2023;09:00;<7;12;87;45
08.06.2023;10:00;<7;12;95;43
08.06.2023;11:00;<7;<10;104;38
08.06.2023;12:00;<7;<10;114;33
08.06.2023;13:00;<7;<10;119;32
08.06.2023;14:00;<7;<10;123;29
08.06.2023;15:00;<7;<10;115;28
08.06.2023;16:00;<7;<10;85;28
08.06.2023;17:00;<7;10;73;26
08.06.2023;18:00;<7;11;85;24
08.06.2023;19:00;<7;<10;109;23
08.06.2023;20:00;<7;<10;112;23
08.06.2023;21:00;<7;11;94;22
08.06.2023;22:00;<7;15;84;22
08.06.2023;23:00;<7;11;78;21
08.06.2023;24:00;<7;<10;73;21
09.06.2023;01:00;<7;13;61;20
09.06.2023;02:00;;;32;20
09.06.2023;03:00;<7;21;;20
09.06.2023;04:00;<7;22;30;20
09.06.2023;05:00;<7;23;20;19
09.06.2023;06:00;13;34;11;19
09.06.2023;07:00;7;31;33;19
09.06.2023;08:00;;;;19
09.06.2023;09:00;<7;17;90;19
09.06.2023;10:00;<7;15;97;19
09.06.2023;11:00;<7;10;109;19
09.06.2023;12:00;<7;<10;114;19
09.06.2023;13:00;<7;<10;121;19
09.06.2023;14:00;<7;<10;124;19
09.06.2023;15:00;<7;<10;125;19
09.06.2023;16:00;<7;<10;125;18
09.06.2023;17:00;<7;<10;125;18
09.06.2023;18:00;<7;<10;131;18
09.06.2023;19:00;<7;10;125;18
09.06.2023;20:00;<7;26;106;18
09.06.2023;21:00;<7;31;90;19
09.06.2023;22:00;<7;27;81;19
09.06.2023;23:00;<7;22;82;19
09.06.2023;24:00;<7;23;78;20
10.06.2023;01:00;<7;13;93;20
10.06.2023;02:00;<7;15;75;20
10.06.2023;03:00;<7;10;80;20
10.06.2023;04:00;<7;13;74;21
10.06.2023;05:00;<7;<10;86;21
10.06.2023;06:00;<7;14;75;21
10.06.2023;07:00;<7;20;77;21
10.06.2023;08:00;<7;19;90;21
10.06.2023;09:00;;;102;21
10.06.2023;10:00;<7;22;116;21
10.06.2023;11:00;<7;15;120;21
10.06.2023;12:00;<7;<10;131;21
10.06.2023;13:00;<7;<10;135;21
10.06.2023;14:00;<7;<10;137;22
10.06.2023;15:00;<7;<10;137;22
10.06.2023;16:00;<7;<10;133;22
10.06.2023;17:00;<7;<10;133;22
10.06.2023;18:00;<7;<10;134;22
10.06.2023;19:00;<7;<10;130;22
10.06.2023;20:00;<7;10;122;22
10.06.2023;21:00;<7;13;111;22
10.06.2023;22:00;<7;23;91;22
10.06.2023;23:00;<7;31;;21
10.06.2023;24:00;<7;18;83;21
11.06.2023;01:00;<7;22;67;21
11.06.2023;02:00;<7;15;85;21
11.06.2023;03:00;<7;14;88;21
11.06.2023;04:00;<7;<10;91;21
11.06.2023;05:00;<7;<10;83;21
11.06.2023;06:00;<7;<10;83;21
11.06.2023;07:00;<7;<10;83;20
11.06.2023;08:00;<7;13;87;20
11.06.2023;09:00;<7;<10;96;20
11.06.2023;10:00;;;106;20
11.06.2023;11:00;<7;<10;116;20
11.06.2023;12:00;<7;<10;123;20
11.06.2023;13:00;<7;<10;129;19
11.06.2023;14:00;<7;<10;133;19
11.06.2023;15:00;<7;<10;135;19
11.06.2023;16:00;<7;<10;134;19
11.06.2023;17:00;<7;<10;132;19
11.06.2023;18:00;<7;<10;133;19
11.06.2023;19:00;<7;<10;128;19
11.06.2023;20:00;<7;<10;122;19
11.06.2023;21:00;<7;16;107;19
11.06.2023;22:00;<7;15;96;19
11.06.2023;23:00;<7;16;92;19
11.06.2023;24:00;<7;15;;18
12.06.2023;01:00;<7;10;99;18
12.06.2023;02:00;<7;12;89;18
12.06.2023;03:00;<7;14;74;18
12.06.2023;04:00;<7;15;61;17
12.06.2023;05:00;<7;24;63;17
12.06.2023;06:00;<7;35;50;17
12.06.2023;07:00;<7;35;56;17
12.06.2023;08:00;<7;32;69;18
12.06.2023;09:00;<7;26;83;18
12.06.2023;10:00;<7;20;97;18
12.06.2023;11:00;;;123;19
12.06.2023;12:00;<7;<10;125;19
12.06.2023;13:00;<7;<10;129;19
12.06.2023;14:00;<7;<10;129;19
12.06.2023;15:00;<7;<10;131;19
12.06.2023;16:00;<7;<10;134;19
12.06.2023;17:00;<7;<10;134;19
12.06.2023;18:00;<7;<10;131;19
12.06.2023;19:00;<7;<10;128;19
12.06.2023;20:00;<7;<10;120;19
12.06.2023;21:00;<7;13;106;19
12.06.2023;22:00;<7;20;87;19
12.06.2023;23:00;<7;19;81;19
12.06.2023;24:00;<7;17;81;19
13.06.2023;01:00;<7;16;;19
13.06.2023;02:00;<7;13;91;19
13.06.2023;03:00;<7;17;90;19
13.06.2023;04:00;<7;14;92;20
13.06.2023;05:00;<7;16;91;20
13.06.2023;06:00;<7;31;70;20
13.06.2023;07:00;<7;23;79;20
13.06.2023;08:00;<7;27;92;20
13.06.2023;09:00;<7;17;97;20
13.06.2023;10:00;<7;14;107;20
13.06.2023;11:00;<7;<10;116;19
13.06.2023;12:00;;;120;19
13.06.2023;13:00;<7;<10;126;19
13.06.2023;14:00;<7;<10;129;19
13.06.2023;15:00;<7;<10;128;19
13.06.2023;16:00;<7;<10;130;19
13.06.2023;17:00;<7;<10;131;19
13.06.2023;18:00;<7;<10;129;19
13.06.2023;19:00;<7;<10;127;19
13.06.2023;20:00;<7;12;122;19
13.06.2023;21:00;<7;<10;123;19
13.06.2023;22:00;<7;<10;117;20
13.06.2023;23:00;<7;<10;116;20
13.06.2023;24:00;<7;11;107;20
14.06.2023;01:00;<7;13;95;20
14.06.2023;02:00;<7;12;;20
14.06.2023;03:00;<7;13;90;20
14.06.2023;04:00;<7;17;87;20
14.06.2023;05:00;<7;22;68;21
14.06.2023;06:00;<7;37;56;21
14.06.2023;07:00;<7;31;69;20
14.06.2023;08:00;<7;16;85;20
14.06.2023;09:00;<7;10;93;20
14.06.2023;10:00;<7;<10;101;20
14.06.2023;11:00;<7;<10;108;19
14.06.2023;12:00;<7;<10;110;19
14.06.2023;13:00;;;112;19
14.06.2023;14:00;<7;<10;111;18
14.06.2023;15:00;<7;<10;108;18
14.06.2023;16:00;<7;<10;111;18
14.06.2023;17:00;<7;<10;110;18
14.06.2023;18:00;<7;<10;108;18
14.06.2023;19:00;<7;<10;110;17
14.06.2023;20:00;<7;<10;110;17
14.06.2023;21:00;<7;16;96;17
14.06.2023;22:00;<7;18;88;16
14.06.2023;23:00;<7;17;80;16
14.06.2023;24:00;<7;18;65;16
15.06.2023;01:00;<7;21;62;15
15.06.2023;02:00;<7;16;62;15
15.06.2023;03:00;<7;20;;15
15.06.2023;04:00;<7;19;48;14
15.06.2023;05:00;<7;20;36;14
15.06.2023;06:00;<7;35;23;14
15.06.2023;07:00;<7;34;46;14
15.06.2023;08:00;<7;31;60;14
15.06.2023;09:00;<7;21;80;15
15.06.2023;10:00;<7;15;99;15
15.06.2023;11:00;<7;11;100;15
15.06.2023;12:00;<7;<10;110;16
15.06.2023;13:00;<7;<10;115;16
15.06.2023;14:00;;;124;19
15.06.2023;15:00;<7;<10;131;20
15.06.2023;16:00;<7;<10;134;20
15.06.2023;17:00;<7;<10;141;21
15.06.2023;18:00;<7;<10;141;21
15.06.2023;19:00;<7;<10;139;21
15.06.2023;20:00;<7;<10;128;22
15.06.2023;21:00;<7;<10;121;22
15.06.2023;22:00;<7;14;101;22
15.06.2023;23:00;<7;16;78;22
15.06.2023;24:00;<7;16;67;22
16.06.2023;01:00;<7;21;63;23
16.06.2023;02:00;<7;21;54;23
16.06.2023;03:00;<7;23;49;23
16.06.2023;04:00;<7;21;;23
16.06.2023;05:00;<7;24;34;24
16.06.2023;06:00;<7;28;25;24
16.06.2023;07:00;8;38;35;24
16.06.2023;08:00;8;43;58;25
16.06.2023;09:00;<7;30;71;26
16.06.2023;10:00;<7;16;94;28
16.06.2023;11:00;<7;16;103;29
16.06.2023;12:00;<7;<10;122;31
16.06.2023;13:00;<7;<10;131;32
16.06.2023;14:00;<7;<10;132;32
16.06.2023;15:00;;;136;33
16.06.2023;16:00;<7;<10;151;32
16.06.2023;17:00;<7;<10;150;33
16.06.2023;18:00;<7;<10;138;33
16.06.2023;19:00;<7;<10;126;32
16.06.2023;20:00;<7;<10;115;32
16.06.2023;21:00;<7;<10;109;32
16.06.2023;22:00;<7;13;93;32
16.06.2023;23:00;<7;18;83;32
16.06.2023;24:00;<7;15;86;32
17.06.2023;01:00;<7;14;76;32
17.06.2023;02:00;<7;15;58;32
17.06.2023;03:00;<7;18;50;32
17.06.2023;04:00;<7;17;51;32
17.06.2023;05:00;<7;15;;32
17.06.2023;06:00;<7;24;40;32
17.06.2023;07:00;<7;22;51;32
17.06.2023;08:00;<7;21;79;31
17.06.2023;09:00;<7;22;102;30
17.06.2023;10:00;<7;19;130;28
17.06.2023;11:00;<7;16;139;27
17.06.2023;12:00;<7;10;146;26
17.06.2023;13:00;<7;<10;153;24
17.06.2023;14:00;<7;<10;153;21
17.06.2023;15:00;<7;<10;159;21
17.06.2023;16:00;;;157;21
17.06.2023;17:00;<7;<10;158;21
17.06.2023;18:00;<7;<10;152;20
17.06.2023;19:00;<7;11;145;21
17.06.2023;20:00;<7;<10;141;20
17.06.2023;21:00;<7;11;117;21
17.06.2023;22:00;<7;18;82;21
17.06.2023;23:00;<7;15;87;21
17.06.2023;24:00;<7;16;83;21
18.06.2023;01:00;<7;16;75;21
18.06.2023;02:00;<7;32;55;21
18.06.2023;03:00;<7;18;73;21
18.06.2023;04:00;<7;24;59;21
18.06.2023;05:00;<7;31;44;21
18.06.2023;06:00;<7;28;;21
18.06.2023;07:00;<7;24;71;20
18.06.2023;08:00;<7;25;79;20
18.06.2023;09:00;<7;27;98;20
18.06.2023;10:00;<7;29;122;20
18.06.2023;11:00;<7;22;157;20
18.06.2023;12:00;<7;10;168;20
18.06.2023;13:00;<7;<10;176;19
18.06.2023;14:00;<7;<10;179;20
18.06.2023;15:00;<7;<10;177;20
18.06.2023;16:00;<7;<10;169;20
18.06.2023;17:00;;;161;20
18.06.2023;18:00;<7;<10;151;20
18.06.2023;19:00;<7;<10;143;20
18.06.2023;20:00;<7;14;128;20
18.06.2023;21:00;<7;11;131;20
18.06.2023;22:00;<7;<10;104;20
18.06.2023;23:00;<7;<10;87;20
18.06.2023;24:00;<7;11;62;19
19.06.2023;01:00;<7;16;72;19
19.06.2023;02:00;<7;12;69;19
19.06.2023;03:00;<7;12;73;18
19.06.2023;04:00;<7;<10;75;18
19.06.2023;05:00;<7;10;68;18
19.06.2023;06:00;<7;<10;77;18
19.06.2023;07:00;<7;12;;17
19.06.2023;08:00;<7;13;72;17
19.06.2023;09:00;<7;<10;83;16
19.06.2023;10:00;<7;<10;83;16
19.06.2023;11:00;<7;<10;84;15
19.06.2023;12:00;<7;<10;91;15
19.06.2023;13:00;<7;<10;98;15
19.06.2023;14:00;<7;<10;99;14
19.06.2023;15:00;<7;<10;101;14
19.06.2023;16:00;<7;<10;102;14
19.06.2023;17:00;<7;<10;107;13
19.06.2023;18:00;;;111;13
19.06.2023;19:00;<7;10;109;13
19.06.2023;20:00;<7;20;95;13
19.06.2023;21:00;<7;19;91;13
19.06.2023;22:00;<7;17;86;13
19.06.2023;23:00;<7;18;75;13
19.06.2023;24:00;<7;20;65;13
20.06.2023;01:00;<7;19;58;13
20.06.2023;02:00;<7;24;55;13
20.06.2023;03:00;<7;12;63;13
20.06.2023;04:00;<7;12;61;13
20.06.2023;05:00;<7;12;53;13
20.06.2023;06:00;<7;19;54;13
20.06.2023;07:00;<7;15;53;13
20.06.2023;08:00;<7;23;57;13
20.06.2023;09:00;<7;14;83;14
20.06.2023;10:00;<7;<10;97;14
20.06.2023;11:00;<7;<10;102;14
20.06.2023;12:00;<7;<10;105;14
20.06.2023;13:00;<7;<10;108;14
20.06.2023;14:00;<7;<10;108;14
20.06.2023;15:00;<7;<10;106;14
20.06.2023;16:00;<7;<10;107;14
20.06.2023;17:00;<7;<10;103;14
20.06.2023;18:00;<7;<10;105;14
20.06.2023;19:00;;;105;14
20.06.2023;20:00;<7;<10;105;14
20.06.2023;21:00;<7;<10;100;14
20.06.2023;22:00;<7;<10;99;14
20.06.2023;23:00;<7;<10;;15
20.06.2023;24:00;<7;<10;92;15
21.06.2023;01:00;<7;<10;81;14
21.06.2023;02:00;<7;<10;77;14
21.06.2023;03:00;<7;<10;69;14
21.06.2023;04:00;<7;<10;60;13
21.06.2023;05:00;<7;<10;66;13
21.06.2023;06:00;<7;11;59;13
21.06.2023;07:00;<7;15;53;14
21.06.2023;08:00;<7;14;63;14
21.06.2023;09:00;<7;12;72;14
21.06.2023;10:00;<7;<10;83;14
21.06.2023;11:00;<7;<10;89;15
21.06.2023;12:00;<7;<10;92;15
21.06.2023;13:00;<7;<10;81;16
21.06.2023;14:00;<7;<10;96;16
21.06.2023;15:00;<7;<10;103;16
21.06.2023;16:00;<7;<10;108;16
21.06.2023;17:00;<7;<10;111;16
21.06.2023;18:00;<7;<10;111;16
21.06.2023;19:00;<7;15;103;16
21.06.2023;20:00;;;103;16
21.06.2023;21:00;<7;11;103;16
21.06.2023;22:00;<7;15;90;16
21.06.2023;23:00;<7;13;85;14
21.06.2023;24:00;<7;14;;15
22.06.2023;01:00;<7;17;72;15
22.06.2023;02:00;<7;18;71;15
22.06.2023;03:00;<7;18;66;15
22.06.2023;04:00;<7;19;66;16
22.06.2023;05:00;<7;20;61;16
22.06.2023;06:00;<7;28;51;16
22.06.2023;07:00;<7;34;47;30
22.06.2023;08:00;<7;32;68;31
22.06.2023;09:00;<7;26;76;32
22.06.2023;10:00;<7;17;96;33
22.06.2023;11:00;<7;11;106;33
22.06.2023;12:00;<7;10;82;33
22.06.2023;13:00;<7;14;61;33
22.06.2023;14:00;<7;18;71;33
22.06.2023;15:00;<7;<10;84;33
22.06.2023;16:00;<7;<10;86;33
22.06.2023;17:00;<7;14;63;33
22.06.2023;18:00;<7;15;60;33
22.06.2023;19:00;<7;15;60;33